| time (UTC) | temp F | wind direction | speed MPH | gust MPH | rain 1hr in | rain 24hr in | rain mn in | humidity % | barometer mb |
| 20260903011537 | 79 | 66 | 0.0 | 0.0 | 0.00 | 0.01 | 0.01 | 63 | 1010.8 |
| 20260903010032 | 80 | 67 | 0.0 | 0.0 | 0.00 | 0.01 | 0.01 | 62 | 1010.5 |
| 20260903004544 | 81 | 68 | 0.0 | 0.0 | 0.00 | 0.01 | 0.01 | 60 | 1010.6 |
| 20260903003041 | 82 | 104 | 0.0 | 0.0 | 0.00 | 0.01 | 0.01 | 58 | 1010.7 |
| 20260903001532 | 83 | 43 | 0.0 | 0.0 | 0.00 | 0.01 | 0.01 | 56 | 1010.6 |
| 20260903000031 | 84 | 94 | 0.0 | 0.0 | 0.00 | 0.01 | 0.01 | 55 | 1010.6 |
| 20260902234530 | 84 | 105 | 0.0 | 0.0 | 0.00 | 0.01 | 0.01 | 55 | 1010.6 |
| 20260902233030 | 85 | 107 | 0.0 | 3.0 | 0.00 | 0.01 | 0.01 | 53 | 1010.7 |
| 20260902231531 | 85 | 76 | 0.0 | 3.0 | 0.00 | 0.01 | 0.01 | 53 | 1010.7 |
| 20260902230029 | 86 | 89 | 0.0 | 4.0 | 0.00 | 0.01 | 0.01 | 52 | 1010.7 |
| 20260902224528 | 86 | 46 | 0.0 | 0.0 | 0.00 | 0.01 | 0.01 | 52 | 1010.7 |
| 20260902223035 | 86 | 338 | 0.0 | 0.0 | 0.00 | 0.01 | 0.01 | 51 | 1010.7 |
| 20260902221526 | 87 | 85 | 0.0 | 0.0 | 0.00 | 0.01 | 0.01 | 50 | 1010.7 |
| 20260902220025 | 87 | 42 | 0.0 | 0.0 | 0.00 | 0.01 | 0.01 | 51 | 1010.8 |
| 20260902214528 | 88 | 18 | 0.0 | 0.0 | 0.00 | 0.01 | 0.01 | 49 | 1010.8 |
| 20260902213027 | 87 | 136 | 0.0 | 4.0 | 0.00 | 0.01 | 0.01 | 49 | 1010.8 |
| 20260902211520 | 87 | 359 | 0.0 | 0.0 | 0.00 | 0.01 | 0.01 | 49 | 1010.9 |
| 20260902210027 | 87 | 51 | 0.0 | 0.0 | 0.00 | 0.01 | 0.01 | 49 | 1011.0 |
| 20260902204520 | 86 | 120 | 0.0 | 4.0 | 0.00 | 0.01 | 0.01 | 50 | 1011.0 |
| 20260902203025 | 87 | 128 | 0.0 | 1.0 | 0.00 | 0.01 | 0.01 | 47 | 1011.2 |
| 20260902201518 | 86 | 110 | 0.0 | 2.0 | 0.00 | 0.01 | 0.01 | 49 | 1011.3 |
| 20260902200015 | 87 | 189 | 0.0 | 0.0 | 0.00 | 0.01 | 0.01 | 52 | 1011.4 |
| 20260902194510 | 85 | 205 | 0.0 | 0.0 | 0.00 | 0.01 | 0.01 | 50 | 1011.5 |
| 20260902193008 | 85 | 83 | 0.0 | 6.0 | 0.00 | 0.01 | 0.01 | 49 | 1011.7 |
| 20260902191507 | 85 | 295 | 0.0 | 0.0 | 0.00 | 0.01 | 0.01 | 51 | 1011.8 |
| 20260902190006 | 85 | 308 | 0.0 | 0.0 | 0.00 | 0.01 | 0.01 | 54 | 1011.8 |
| 20260902184509 | 83 | 70 | 0.0 | 0.0 | 0.00 | 0.01 | 0.01 | 58 | 1012.1 |
| 20260902183116 | 82 | 72 | 0.0 | 0.0 | 0.00 | 0.01 | 0.01 | 60 | 1012.2 |
| 20260902181559 | 82 | 99 | 0.0 | 4.0 | 0.00 | 0.01 | 0.01 | 58 | 1012.4 |
| 20260902180058 | 82 | 121 | 0.0 | 0.0 | 0.00 | 0.01 | 0.01 | 58 | 1012.7 |
| 20260902174605 | 82 | 242 | 0.0 | 1.0 | 0.00 | 0.01 | 0.01 | 60 | 1012.8 |
| 20260902173054 | 81 | 194 | 0.0 | 0.0 | 0.00 | 0.01 | 0.01 | 62 | 1013.1 |
| 20260902171601 | 81 | 251 | 0.0 | 0.0 | 0.00 | 0.01 | 0.01 | 64 | 1012.8 |
| 20260902170052 | 79 | 274 | 0.0 | 0.0 | 0.00 | 0.01 | 0.01 | 64 | 1013.0 |
| 20260902164552 | 80 | 265 | 0.0 | 0.0 | 0.00 | 0.01 | 0.01 | 65 | 1013.0 |
| 20260902163102 | 80 | 245 | 0.0 | 5.0 | 0.00 | 0.01 | 0.01 | 64 | 1013.4 |
| 20260902161549 | 79 | 91 | 0.0 | 3.0 | 0.00 | 0.01 | 0.01 | 61 | 1013.0 |
| 20260902160047 | 77 | 48 | 0.0 | 0.0 | 0.00 | 0.01 | 0.01 | 68 | 1012.8 |
| 20260902154546 | 78 | 79 | 0.0 | 0.0 | 0.00 | 0.01 | 0.01 | 67 | 1012.7 |
| 20260902153041 | 76 | 107 | 0.0 | 0.0 | 0.00 | 0.01 | 0.01 | 72 | 1012.7 |
| 20260902151548 | 76 | 210 | 0.0 | 0.0 | 0.00 | 0.01 | 0.01 | 73 | 1012.8 |
| 20260902150037 | 75 | 72 | 0.0 | 0.0 | 0.00 | 0.01 | 0.01 | 75 | 1012.6 |
| 20260902144539 | 73 | 89 | 0.0 | 0.0 | 0.00 | 0.01 | 0.01 | 77 | 1012.7 |
| 20260902143030 | 71 | 87 | 0.0 | 0.0 | 0.00 | 0.01 | 0.01 | 78 | 1012.8 |
| 20260902141526 | 70 | 87 | 0.0 | 0.0 | 0.00 | 0.01 | 0.01 | 81 | 1012.9 |
| 20260902140023 | 69 | 77 | 0.0 | 0.0 | 0.00 | 0.01 | 0.01 | 82 | 1013.0 |
| 20260902134522 | 69 | 103 | 0.0 | 0.0 | 0.00 | 0.01 | 0.01 | 83 | 1013.2 |
| 20260902133021 | 68 | 74 | 0.0 | 0.0 | 0.00 | 0.01 | 0.01 | 86 | 1013.1 |
| 20260902131521 | 66 | 81 | 0.0 | 0.0 | 0.00 | 0.01 | 0.01 | 89 | 1013.1 |
| 20260902130019 | 66 | 74 | 0.0 | 0.0 | 0.00 | 0.01 | 0.01 | 89 | 1013.1 |
| 20260902124519 | 66 | 89 | 0.0 | 0.0 | 0.00 | 0.01 | 0.01 | 89 | 1013.2 |
| 20260902123022 | 66 | 94 | 0.0 | 0.0 | 0.00 | 0.01 | 0.01 | 89 | 1013.0 |
| 20260902121517 | 65 | 127 | 0.0 | 0.0 | 0.00 | 0.01 | 0.01 | 90 | 1013.4 |
| 20260902120017 | 65 | 150 | 0.0 | 0.0 | 0.00 | 0.01 | 0.01 | 90 | 1013.4 |
| 20260902114518 | 65 | 98 | 1.0 | 4.0 | 0.00 | 0.01 | 0.01 | 90 | 1013.5 |
| 20260902113016 | 65 | 250 | 0.0 | 5.0 | 0.00 | 0.01 | 0.01 | 92 | 1013.5 |
| 20260902111522 | 65 | 184 | 0.0 | 0.0 | 0.00 | 0.01 | 0.01 | 92 | 1013.6 |
| 20260902110020 | 65 | 203 | 0.0 | 0.0 | 0.00 | 0.01 | 0.01 | 92 | 1013.5 |
| 20260902104518 | 65 | 249 | 0.0 | 2.0 | 0.00 | 0.01 | 0.01 | 93 | 1013.3 |
| 20260902103014 | 65 | 136 | 0.0 | 4.0 | 0.00 | 0.01 | 0.01 | 94 | 1013.4 |
| 20260902101513 | 64 | 107 | 0.0 | 0.0 | 0.00 | 0.01 | 0.01 | 95 | 1013.0 |
| 20260902100013 | 64 | 77 | 0.0 | 0.0 | 0.00 | 0.01 | 0.01 | 95 | 1012.6 |
| 20260902094511 | 65 | 77 | 0.0 | 0.0 | 0.00 | 0.01 | 0.01 | 95 | 1011.8 |
| 20260902093011 | 65 | 105 | 0.0 | 0.0 | 0.00 | 0.01 | 0.01 | 96 | 1011.5 |
| 20260902091507 | 65 | 84 | 0.0 | 0.0 | 0.00 | 0.01 | 0.01 | 96 | 1012.1 |
| 20260902090007 | 65 | 102 | 0.0 | 0.0 | 0.00 | 0.01 | 0.01 | 96 | 1012.0 |
| 20260902084505 | 65 | 124 | 0.0 | 0.0 | 0.01 | 0.01 | 0.01 | 96 | 1012.5 |
| 20260902083003 | 65 | 99 | 0.0 | 0.0 | 0.01 | 0.01 | 0.01 | 96 | 1012.9 |
| 20260902081503 | 65 | 81 | 0.0 | 0.0 | 0.01 | 0.01 | 0.01 | 96 | 1012.6 |
| 20260902080002 | 65 | 104 | 0.0 | 0.0 | 0.01 | 0.01 | 0.01 | 95 | 1012.8 |
| 20260902074502 | 66 | 110 | 0.0 | 9.0 | 0.00 | 0.00 | 0.00 | 95 | 1012.6 |
| 20260902073001 | 65 | 115 | 1.0 | 7.0 | 0.00 | 0.00 | 0.00 | 95 | 1013.5 |
| 20260902071559 | 65 | 129 | 0.0 | 2.0 | 0.00 | 0.00 | 0.00 | 94 | 1013.7 |
| 20260902070055 | 67 | 122 | 0.0 | 0.0 | 0.00 | 0.00 | 0.00 | 86 | 1014.1 |
| 20260902064555 | 68 | 122 | 0.0 | 0.0 | 0.00 | 0.00 | 0.00 | 83 | 1014.2 |
| 20260902063059 | 68 | 122 | 0.0 | 0.0 | 0.00 | 0.00 | 0.00 | 83 | 1013.9 |
| 20260902061553 | 69 | 122 | 0.0 | 0.0 | 0.00 | 0.00 | 0.00 | 82 | 1013.2 |
| 20260902060050 | 68 | 85 | 0.0 | 0.0 | 0.00 | 0.00 | 0.00 | 84 | 1012.4 |
| 20260902054548 | 67 | 68 | 0.0 | 0.0 | 0.00 | 0.00 | 0.00 | 85 | 1013.0 |
| 20260902053043 | 67 | 69 | 0.0 | 0.0 | 0.00 | 0.00 | 0.00 | 85 | 1013.4 |
| 20260902051545 | 67 | 68 | 0.0 | 0.0 | 0.00 | 0.00 | 0.00 | 84 | 1013.5 |
| 20260902050056 | 68 | 68 | 0.0 | 0.0 | 0.00 | 0.00 | 0.00 | 83 | 1013.2 |
| 20260902044538 | 68 | 68 | 0.0 | 0.0 | 0.00 | 0.00 | 0.00 | 81 | 1013.0 |
| 20260902043044 | 68 | 68 | 0.0 | 0.0 | 0.00 | 0.00 | 0.00 | 83 | 1012.8 |
| 20260902041537 | 68 | 69 | 0.0 | 0.0 | 0.00 | 0.00 | 0.00 | 83 | 1012.7 |
| 20260902040038 | 68 | 45 | 0.0 | 0.0 | 0.00 | 0.00 | 0.00 | 82 | 1012.7 |
| 20260902034536 | 68 | 45 | 0.0 | 0.0 | 0.00 | 0.00 | 0.00 | 79 | 1013.1 |
| 20260902033035 | 69 | 45 | 0.0 | 0.0 | 0.00 | 0.00 | 0.00 | 77 | 1013.4 |
| 20260902031534 | 70 | 45 | 0.0 | 0.0 | 0.00 | 0.00 | 0.00 | 74 | 1013.4 |
| 20260902030034 | 71 | 45 | 0.0 | 0.0 | 0.00 | 0.00 | 0.00 | 74 | 1013.3 |
| 20260902024539 | 71 | 45 | 0.0 | 0.0 | 0.00 | 0.00 | 0.00 | 70 | 1013.2 |
| 20260902023033 | 72 | 45 | 0.0 | 0.0 | 0.00 | 0.00 | 0.00 | 70 | 1013.1 |
| 20260902021532 | 73 | 45 | 0.0 | 0.0 | 0.00 | 0.00 | 0.00 | 67 | 1013.2 |
| 20260902020031 | 74 | 45 | 0.0 | 0.0 | 0.00 | 0.00 | 0.00 | 64 | 1013.2 |
| 20260902014531 | 75 | 45 | 0.0 | 0.0 | 0.00 | 0.00 | 0.00 | 62 | 1012.9 |
| 20260902013035 | 76 | 45 | 0.0 | 0.0 | 0.00 | 0.00 | 0.00 | 61 | 1012.9 |